This is the latest recevied weather packets stored in our database for station/object IR3AS. If no packets are shown the sender has not sent any weather packets the latest 10 day(s).
| Time | Temp. | Humidity | Pressure | Rain* | Wind** | Luminosity | Snow |
|---|---|---|---|---|---|---|---|
| 1787842501 | 17.78° C | 77% | 869.4 hPa | 0 mm | - | - | - |
| 1787842200 | 17.78° C | 78% | 869.9 hPa | 0 mm | - | - | - |
| 1787841900 | 17.78° C | 78% | 870.3 hPa | 0 mm | - | - | - |
| 1787841600 | 17.22° C | 77% | 870.2 hPa | 0 mm | - | - | - |
| 1787841300 | 17.78° C | 76% | 869.9 hPa | 0 mm | - | - | - |
| 1787841000 | 17.78° C | 75% | 870.3 hPa | 0 mm | - | - | - |
| 1787840700 | 18.33° C | 75% | 870.2 hPa | 0 mm | - | - | - |
| 1787840400 | 18.33° C | 74% | 870.4 hPa | 0 mm | - | - | - |
| 1787840100 | 18.33° C | 74% | 869.4 hPa | 0 mm | - | - | - |
| 1787839834 | 18.89° C | 71% | 870.1 hPa | 0 mm | - | - | - |
| 1787839800 | 18.89° C | 71% | 870.1 hPa | 0 mm | - | - | - |
| 1787839500 | 19.44° C | 69% | 870.1 hPa | 0 mm | - | - | - |
| 1787839200 | 20° C | 69% | 870.5 hPa | 0 mm | - | - | - |
| 1787838900 | 20.56° C | 67% | 870.1 hPa | 0 mm | - | - | - |
| 1787838600 | 21.11° C | 67% | 870.1 hPa | 0 mm | - | - | - |
| 1787838300 | 21.11° C | 68% | 870.2 hPa | 0 mm | - | - | - |
| 1787838000 | 20.56° C | 67% | 870.2 hPa | 0 mm | - | - | - |
| 1787837701 | 20.56° C | 67% | 870.1 hPa | 0 mm | - | - | - |
| 1787837400 | 20.56° C | 67% | 869.8 hPa | 0 mm | - | - | - |
| 1787837100 | 20.56° C | 65% | 869.6 hPa | 0 mm | - | - | - |
| 1787836801 | 21.11° C | 64% | 869.2 hPa | 0 mm | - | - | - |
| 1787836500 | 21.67° C | 64% | 869.5 hPa | 0 mm | - | - | - |
| 1787836239 | 21.67° C | 64% | 869.6 hPa | 0 mm | - | - | - |
| 1787836200 | 21.67° C | 64% | 869.6 hPa | 0 mm | - | - | - |
| 1787835900 | 21.67° C | 64% | 869.9 hPa | 0 mm | - | - | - |
* Rain latest hour (hover to see other rain measurements)
** Current wind speed in m/s (hover to see current wind gust speed)